sat.trackr.live / text

‹ back to catalog

STARLINK-36757

NORAD 67728 · 2026-026H

PAYLOAD ACTIVE UNKNOWN

§ Identity

Operator
Country
US
Launch date
2026-02-11
Launch site
AFWTR
Launch vehicle
Mass (kg)
RCS (m²)

Purposes: comms

External: N2YO · Heavens-Above · Gunter

§ Orbital elements

Epoch: 2026-05-25T03:49:21.144000Z

Period
93.91 min
Inclination
97.2851°
Eccentricity
0.0000636
Mean motion
15.33450759 rev/d
Perigee alt
465.1 km
Apogee alt
466.0 km
Semi-major
6,843.7 km
B*
7.3301e-4
RAAN
198.6597°
Arg perigee
105.1199°
Mean anomaly
255.0114°
Rev number
1,584

§ Raw data

STARLINK-367571 67728U 26026H   26145.15927250  .00023667  00000+0  73301-3 0  99952 67728  97.2851 198.6597 0000636 105.1199 255.0114 15.33450759 15848

JSON: /api/v1/satellites/67728 · /tle

For live sub-satellite position, see the globe view (requires WebGL).

§ Visibility from observer

Set your observer location to see the next 7 days of passes ≥ 10°. The values pass through the URL so the page stays shareable.

No JS? Fill the form by hand. The geolocation button needs JavaScript.